{"data":{"norad_id":52868,"intl_designator":"2022-062AQ","name":"STARLINK-4261","alt_names":[],"object_type":"PAYLOAD","status":"ACTIVE","operator":null,"country":"US","launch_date":"2022-06-17","launch_site_code":"AFETR","launch_vehicle":null,"mission":null,"orbit_class":"UNKNOWN","rcs_meters":null,"size_class":null,"mass_kg":null,"dimensions":null,"purposes":["comms"],"wikipedia_slug":null,"has_3d_model":false,"image_url":null,"decayed_at":null,"tle_current":{"epoch":"2026-05-24T23:13:19.776000Z","epoch_age_seconds":87969,"freshness":"FRESH","line1":"1 52868U 22062AQ  26144.96759000  .00000684  00000+0  61050-4 0  9997","line2":"2 52868  53.2143  41.7255 0001291  90.1408 269.9732 15.08839959217441","mean_motion":15.08839959,"eccentricity":0.0001291,"inclination_deg":53.2143,"raan_deg":41.7255,"arg_perigee_deg":90.1408,"mean_anomaly_deg":269.9732,"bstar":6.105e-5,"rev_number":21744,"period_min":95.437557271109,"perigee_km":538.85041591031,"apogee_km":540.6366126591,"semimajor_km":6917.8805142847,"source":"CELESTRAK","updated_at":"2026-05-25T13:38:17.248930Z"}}}